Simultaneous Nadir Overpasses (SNOs) Predictions

Prediction of SNOs between FY3D and METOP-C Satellite Orbit:

Table of predicted SNOs for the next 14.0 days since TLE Epoch: 10/4/2020
Index Date (FY3D) Time (FY3D) Lat,Lon (FY3D) SZA (FY3D ) Date (METOP-C) Time (METOP-C) Lat,Lon (METOP-C) SZA (METOP-C ) Distance(km) Time Diff (sec)
1 10/17/2020 20:49:30 73.68,-140.90 83.30 10/17/2020 20:50:38 73.65,-138.68 83.23 69.47 68
2 10/17/2020 21:40:13 -73.64, 26.50 96.73 10/17/2020 21:41:22 -73.59, 28.50 96.82 63.01 69
3 10/17/2020 22:30:54 73.43,-165.69 83.07 10/17/2020 22:32:05 73.37,-164.65 82.99 33.68 71
4 10/17/2020 23:21:37 -73.39, 1.71 96.96 10/17/2020 23:22:49 -73.31, 2.54 97.06 27.96 72
